Tracking 31027 objects as of 19-Jul-2025
HD Live streaming from Space Station
objects crossing your sky now

STARLINK-32281

Track STARLINK-32281 now!
10-day predictions
STARLINK-32281 is classified as:


NORAD ID: 60375
Int'l Code: 2024-138W
Perigee: 481.9 km
Apogee: 483.0 km
Inclination: 53.2 °
Period: 94.1 minutes
Semi major axis: 6853 km
RCS: Unknown
Launch date: August 4, 2024
Source: United States (US)
Launch site: AIR FORCE WESTERN TEST RANGE (AFWTR)
Your satellite tracking list
EUTE 33A (EB 3)
Track 1 satellite(s)




NASA's NSSDC Master Catalog

Two Line Element Set (TLE):
1 60375U 24138W   25199.62277485 -.00001669  00000-0 -44274-4 0  9995
2 60375  53.1604 316.6275 0000809  75.5605 284.5485 15.30177997 54696
Source of the keplerian elements: AFSPC